Time,TemperatureF,DewpointF,PressureIn,WindDirection,WindDirectionDegrees,WindSpeedMPH,WindSpeedGustMPH,Humidity,HourlyPrecipIn,Conditions,Clouds,dailyrainin,SoftwareType,DateUTC
2013-02-17 00:00:00,46.4,39.7,29.92,ENE,68,0.2,0.4,77,0.00,,,0.00,WUHU216HW,2013-02-17 08:00:00,
2013-02-17 00:05:00,46.8,40.0,29.92,ENE,68,1.1,1.1,77,0.00,,,0.00,WUHU216HW,2013-02-17 08:05:00,
2013-02-17 00:10:00,46.8,40.3,29.92,NNE,23,0.7,1.1,78,0.00,,,0.00,WUHU216HW,2013-02-17 08:10:00,
2013-02-17 00:15:00,47.0,40.9,29.92,ENE,68,1.1,1.1,79,0.00,,,0.00,WUHU216HW,2013-02-17 08:15:00,
2013-02-17 00:20:00,47.2,41.0,29.92,ENE,68,0.4,1.1,79,0.00,,,0.00,WUHU216HW,2013-02-17 08:20:00,
2013-02-17 00:25:00,47.3,41.1,29.92,ENE,68,0.0,1.1,79,0.00,,,0.00,WUHU216HW,2013-02-17 08:25:00,
2013-02-17 00:30:00,47.5,41.0,29.92,ENE,68,0.0,0.4,78,0.00,,,0.00,WUHU216HW,2013-02-17 08:30:00,
2013-02-17 00:35:00,47.7,41.1,29.92,ENE,68,0.4,0.7,78,0.00,,,0.00,WUHU216HW,2013-02-17 08:35:00,
2013-02-17 00:40:00,47.9,41.3,29.92,ENE,68,0.4,0.7,78,0.00,,,0.00,WUHU216HW,2013-02-17 08:40:00,
2013-02-17 00:45:00,47.9,41.3,29.92,ENE,68,0.0,0.4,78,0.00,,,0.00,WUHU216HW,2013-02-17 08:45:00,
2013-02-17 00:50:00,47.9,41.3,29.92,ENE,68,0.0,0.4,78,0.00,,,0.00,WUHU216HW,2013-02-17 08:50:00,
2013-02-17 00:55:00,47.9,41.3,29.92,NW,315,0.7,0.7,78,0.00,,,0.00,WUHU216HW,2013-02-17 08:55:00,
2013-02-17 01:00:00,47.9,41.3,29.91,NW,315,0.0,0.7,78,0.00,,,0.00,WUHU216HW,2013-02-17 09:00:00,
2013-02-17 01:05:00,47.9,41.0,29.92,NE,45,0.2,0.7,77,0.00,,,0.00,WUHU216HW,2013-02-17 09:05:00,
2013-02-17 01:10:00,47.9,41.0,29.92,NNE,23,0.2,0.9,77,0.00,,,0.00,WUHU216HW,2013-02-17 09:10:00,
2013-02-17 01:15:00,47.9,41.0,29.91,NNE,23,0.4,0.9,77,0.00,,,0.00,WUHU216HW,2013-02-17 09:15:00,
2013-02-17 01:20:00,48.1,41.1,29.91,ENE,68,0.4,0.7,77,0.00,,,0.00,WUHU216HW,2013-02-17 09:20:00,
2013-02-17 01:25:00,48.2,41.0,29.91,NE,45,0.0,0.9,76,0.00,,,0.00,WUHU216HW,2013-02-17 09:25:00,
2013-02-17 01:30:00,48.2,41.0,29.91,ENE,68,0.0,1.1,76,0.00,,,0.00,WUHU216HW,2013-02-17 09:30:00,
2013-02-17 01:35:00,48.4,40.8,29.91,ENE,68,0.0,1.1,75,0.00,,,0.00,WUHU216HW,2013-02-17 09:35:00,
2013-02-17 01:40:00,48.4,40.8,29.91,ENE,68,0.0,0.4,75,0.00,,,0.00,WUHU216HW,2013-02-17 09:40:00,
2013-02-17 01:45:00,48.2,40.6,29.91,NE,45,0.2,0.7,75,0.00,,,0.00,WUHU216HW,2013-02-17 09:45:00,
2013-02-17 01:50:00,48.1,40.4,29.91,NNE,23,0.2,0.9,75,0.00,,,0.00,WUHU216HW,2013-02-17 09:50:00,
2013-02-17 01:55:00,47.9,40.2,29.91,NNE,23,0.2,0.9,75,0.00,,,0.00,WUHU216HW,2013-02-17 09:55:00,
2013-02-17 02:00:00,47.9,40.2,29.91,NE,45,0.0,0.9,75,0.00,,,0.00,WUHU216HW,2013-02-17 10:00:00,
2013-02-17 02:05:00,47.7,40.2,29.91,NE,45,0.0,0.9,75,0.00,,,0.00,WUHU216HW,2013-02-17 10:05:00,
2013-02-17 02:10:00,47.5,40.0,29.91,NE,45,0.0,0.4,75,0.00,,,0.00,WUHU216HW,2013-02-17 10:10:00,
2013-02-17 02:15:00,47.5,40.0,29.91,NE,45,0.0,0.4,75,0.00,,,0.00,WUHU216HW,2013-02-17 10:15:00,
2013-02-17 02:20:00,47.5,40.0,29.91,NE,45,0.0,0.4,75,0.00,,,0.00,WUHU216HW,2013-02-17 10:20:00,
2013-02-17 02:25:00,47.7,40.2,29.91,NE,45,0.0,0.4,75,0.00,,,0.00,WUHU216HW,2013-02-17 10:25:00,
2013-02-17 02:30:00,47.7,40.2,29.91,NE,45,0.0,0.4,75,0.00,,,0.00,WUHU216HW,2013-02-17 10:30:00,
2013-02-17 02:35:00,47.5,40.0,29.90,NE,45,0.0,0.0,75,0.00,,,0.00,WUHU216HW,2013-02-17 10:35:00,
2013-02-17 02:40:00,47.5,40.0,29.90,NE,45,0.0,0.0,75,0.00,,,0.00,WUHU216HW,2013-02-17 10:40:00,
2013-02-17 02:45:00,47.3,39.8,29.90,NE,45,0.0,0.0,75,0.00,,,0.00,WUHU216HW,2013-02-17 10:45:00,
2013-02-17 02:50:00,47.2,39.2,29.90,NE,45,0.0,0.0,74,0.00,,,0.00,WUHU216HW,2013-02-17 10:50:00,
2013-02-17 02:55:00,47.0,39.4,29.90,NE,45,0.0,0.0,75,0.00,,,0.00,WUHU216HW,2013-02-17 10:55:00,
2013-02-17 03:00:00,46.6,39.2,29.89,NE,45,0.0,0.0,75,0.00,,,0.00,WUHU216HW,2013-02-17 11:00:00,
2013-02-17 03:05:00,46.4,39.0,29.89,NE,45,0.0,0.0,75,0.00,,,0.00,WUHU216HW,2013-02-17 11:05:00,
2013-02-17 03:10:00,46.1,39.0,29.89,NE,45,0.4,0.4,76,0.00,,,0.00,WUHU216HW,2013-02-17 11:10:00,
2013-02-17 03:15:00,45.7,39.0,29.89,NE,45,0.0,0.4,77,0.00,,,0.00,WUHU216HW,2013-02-17 11:15:00,
2013-02-17 03:20:00,45.5,38.8,29.89,NE,45,0.4,0.4,77,0.00,,,0.00,WUHU216HW,2013-02-17 11:20:00,
2013-02-17 03:25:00,45.5,39.1,29.89,NE,45,0.7,0.7,78,0.00,,,0.00,WUHU216HW,2013-02-17 11:25:00,
2013-02-17 03:30:00,45.5,38.8,29.89,North,0,0.4,0.7,77,0.00,,,0.00,WUHU216HW,2013-02-17 11:30:00,
2013-02-17 03:35:00,45.5,39.1,29.89,North,0,0.4,0.7,78,0.00,,,0.00,WUHU216HW,2013-02-17 11:35:00,
2013-02-17 03:40:00,45.4,38.3,29.89,North,0,0.2,0.7,76,0.00,,,0.00,WUHU216HW,2013-02-17 11:40:00,
2013-02-17 03:45:00,45.2,38.1,29.89,NE,45,0.0,0.4,76,0.00,,,0.00,WUHU216HW,2013-02-17 11:45:00,
2013-02-17 03:50:00,45.0,38.3,29.89,NE,45,0.0,0.4,77,0.00,,,0.00,WUHU216HW,2013-02-17 11:50:00,
2013-02-17 03:55:00,45.0,38.3,29.89,NE,45,0.0,0.2,77,0.00,,,0.00,WUHU216HW,2013-02-17 11:55:00,
2013-02-17 04:00:00,45.0,38.3,29.89,NE,45,0.0,0.0,77,0.00,,,0.00,WUHU216HW,2013-02-17 12:00:00,
2013-02-17 04:05:00,45.0,37.9,29.89,NE,45,0.0,0.2,76,0.00,,,0.00,WUHU216HW,2013-02-17 12:05:00,
2013-02-17 04:10:00,45.0,37.9,29.89,NE,45,0.0,0.2,76,0.00,,,0.00,WUHU216HW,2013-02-17 12:10:00,
2013-02-17 04:15:00,44.8,37.7,29.89,NE,45,0.2,0.4,76,0.00,,,0.00,WUHU216HW,2013-02-17 12:15:00,
2013-02-17 04:20:00,44.6,37.5,29.89,NE,45,0.0,0.4,76,0.00,,,0.00,WUHU216HW,2013-02-17 12:20:00,
2013-02-17 04:25:00,44.6,37.9,29.89,NE,45,0.0,0.4,77,0.00,,,0.00,WUHU216HW,2013-02-17 12:25:00,
2013-02-17 04:30:00,44.5,37.7,29.89,NE,45,0.2,0.2,77,0.00,,,0.00,WUHU216HW,2013-02-17 12:30:00,
2013-02-17 04:35:00,44.5,37.7,29.89,NE,45,0.0,0.2,77,0.00,,,0.00,WUHU216HW,2013-02-17 12:35:00,
2013-02-17 04:40:00,44.3,37.5,29.89,NE,45,0.0,0.2,77,0.00,,,0.00,WUHU216HW,2013-02-17 12:40:00,
2013-02-17 04:45:00,44.3,37.5,29.89,NE,45,0.2,0.2,77,0.00,,,0.00,WUHU216HW,2013-02-17 12:45:00,
2013-02-17 04:50:00,44.3,37.8,29.89,NE,45,0.0,0.2,78,0.00,,,0.00,WUHU216HW,2013-02-17 12:50:00,
2013-02-17 04:55:00,44.3,37.8,29.89,NE,45,0.0,0.2,78,0.00,,,0.00,WUHU216HW,2013-02-17 12:55:00,
2013-02-17 05:00:00,44.1,37.7,29.89,NE,45,0.0,0.0,78,0.00,,,0.00,WUHU216HW,2013-02-17 13:00:00,
2013-02-17 05:05:00,44.1,37.4,29.89,NE,45,0.2,0.4,77,0.00,,,0.00,WUHU216HW,2013-02-17 13:05:00,
2013-02-17 05:10:00,43.9,37.2,29.89,NE,45,0.0,0.4,77,0.00,,,0.00,WUHU216HW,2013-02-17 13:10:00,
2013-02-17 05:15:00,43.7,37.0,29.88,NE,45,0.0,0.4,77,0.00,,,0.00,WUHU216HW,2013-02-17 13:15:00,
2013-02-17 05:20:00,43.6,37.2,29.88,NE,45,0.7,0.7,78,0.00,,,0.00,WUHU216HW,2013-02-17 13:20:00,
2013-02-17 05:25:00,43.4,37.3,29.88,NE,45,0.4,0.9,79,0.00,,,0.00,WUHU216HW,2013-02-17 13:25:00,
2013-02-17 05:30:00,43.2,37.1,29.88,NNE,23,0.4,0.9,79,0.00,,,0.00,WUHU216HW,2013-02-17 13:30:00,
2013-02-17 05:35:00,43.0,36.9,29.89,NNE,23,0.0,0.4,79,0.00,,,0.00,WUHU216HW,2013-02-17 13:35:00,
2013-02-17 05:40:00,42.8,36.7,29.89,NNE,23,0.0,0.4,79,0.00,,,0.00,WUHU216HW,2013-02-17 13:40:00,
2013-02-17 05:45:00,42.8,36.5,29.89,NNE,23,0.4,0.4,78,0.00,,,0.00,WUHU216HW,2013-02-17 13:45:00,
2013-02-17 05:50:00,42.7,36.5,29.89,NNE,23,0.0,0.4,79,0.00,,,0.00,WUHU216HW,2013-02-17 13:50:00,
2013-02-17 05:55:00,42.3,36.2,29.89,NNE,23,0.2,0.4,79,0.00,,,0.00,WUHU216HW,2013-02-17 13:55:00,
2013-02-17 06:00:00,42.1,36.4,29.89,East,90,0.9,1.1,80,0.00,,,0.00,WUHU216HW,2013-02-17 14:00:00,
2013-02-17 06:05:00,42.1,36.6,29.89,East,90,0.0,1.1,81,0.00,,,0.00,WUHU216HW,2013-02-17 14:05:00,
2013-02-17 06:10:00,41.9,36.5,29.89,East,90,0.4,0.9,81,0.00,,,0.00,WUHU216HW,2013-02-17 14:10:00,
2013-02-17 06:15:00,42.3,36.8,29.89,ESE,113,1.1,1.1,81,0.00,,,0.00,WUHU216HW,2013-02-17 14:15:00,
2013-02-17 06:20:00,42.5,37.0,29.89,NNE,23,0.4,1.1,81,0.00,,,0.00,WUHU216HW,2013-02-17 14:20:00,
2013-02-17 06:25:00,42.7,37.2,29.90,North,0,0.4,1.1,81,0.00,,,0.00,WUHU216HW,2013-02-17 14:25:00,
2013-02-17 06:30:00,42.7,36.9,29.90,North,0,0.4,1.1,80,0.00,,,0.00,WUHU216HW,2013-02-17 14:30:00,
2013-02-17 06:35:00,42.1,36.4,29.90,North,0,0.4,0.7,80,0.00,,,0.00,WUHU216HW,2013-02-17 14:35:00,
2013-02-17 06:40:00,42.1,36.4,29.90,NE,45,0.7,0.7,80,0.00,,,0.00,WUHU216HW,2013-02-17 14:40:00,
2013-02-17 06:45:00,41.9,36.5,29.90,NE,45,0.4,0.7,81,0.00,,,0.00,WUHU216HW,2013-02-17 14:45:00,
2013-02-17 06:50:00,41.8,36.3,29.91,NE,45,0.0,0.7,81,0.00,,,0.00,WUHU216HW,2013-02-17 14:50:00,
2013-02-17 06:55:00,41.9,36.5,29.91,NE,45,0.0,0.4,81,0.00,,,0.00,WUHU216HW,2013-02-17 14:55:00,
2013-02-17 07:00:00,41.9,36.5,29.91,NE,45,0.0,0.0,81,0.00,,,0.00,WUHU216HW,2013-02-17 15:00:00,
2013-02-17 07:05:00,42.1,36.6,29.91,NE,45,0.2,0.2,81,0.00,,,0.00,WUHU216HW,2013-02-17 15:05:00,
2013-02-17 07:10:00,41.9,36.2,29.91,NE,45,0.0,0.2,80,0.00,,,0.00,WUHU216HW,2013-02-17 15:10:00,
2013-02-17 07:15:00,41.9,36.2,29.91,NW,315,0.4,1.3,80,0.00,,,0.00,WUHU216HW,2013-02-17 15:15:00,
2013-02-17 07:20:00,41.9,36.2,29.91,NW,315,0.0,1.3,80,0.00,,,0.00,WUHU216HW,2013-02-17 15:20:00,
2013-02-17 07:25:00,41.9,36.2,29.91,NE,45,0.2,0.4,80,0.00,,,0.00,WUHU216HW,2013-02-17 15:25:00,
2013-02-17 07:30:00,42.1,36.6,29.91,NE,45,0.2,0.4,81,0.00,,,0.00,WUHU216HW,2013-02-17 15:30:00,
2013-02-17 07:35:00,42.1,36.6,29.91,NE,45,0.0,0.4,81,0.00,,,0.00,WUHU216HW,2013-02-17 15:35:00,
2013-02-17 07:40:00,42.3,36.8,29.91,NE,45,0.4,0.4,81,0.00,,,0.00,WUHU216HW,2013-02-17 15:40:00,
2013-02-17 07:45:00,42.3,36.8,29.91,NE,45,0.0,0.4,81,0.00,,,0.00,WUHU216HW,2013-02-17 15:45:00,
2013-02-17 07:50:00,42.5,37.0,29.91,NE,45,0.0,0.4,81,0.00,,,0.00,WUHU216HW,2013-02-17 15:50:00,
2013-02-17 07:55:00,42.7,37.2,29.91,NE,45,0.0,0.2,81,0.00,,,0.00,WUHU216HW,2013-02-17 15:55:00,
2013-02-17 08:00:00,42.8,37.4,29.91,NE,45,0.2,0.4,81,0.00,,,0.00,WUHU216HW,2013-02-17 16:00:00,
2013-02-17 08:05:00,43.2,37.7,29.91,NE,45,0.2,0.4,81,0.00,,,0.00,WUHU216HW,2013-02-17 16:05:00,
2013-02-17 08:10:00,43.6,38.1,29.91,NE,45,0.7,0.7,81,0.00,,,0.00,WUHU216HW,2013-02-17 16:10:00,
2013-02-17 08:15:00,43.7,38.3,29.91,NE,45,0.0,0.9,81,0.00,,,0.00,WUHU216HW,2013-02-17 16:15:00,
2013-02-17 08:20:00,44.1,38.6,29.91,ENE,68,0.0,0.9,81,0.00,,,0.00,WUHU216HW,2013-02-17 16:20:00,
2013-02-17 08:25:00,44.3,38.8,29.91,ENE,68,0.0,0.4,81,0.00,,,0.00,WUHU216HW,2013-02-17 16:25:00,
2013-02-17 08:30:00,44.6,39.2,29.91,NE,45,0.0,0.4,81,0.00,,,0.00,WUHU216HW,2013-02-17 16:30:00,
2013-02-17 08:35:00,45.0,39.5,29.91,NE,45,0.0,0.4,81,0.00,,,0.00,WUHU216HW,2013-02-17 16:35:00,
2013-02-17 08:40:00,45.4,39.6,29.91,NE,45,0.0,0.0,80,0.00,,,0.00,WUHU216HW,2013-02-17 16:40:00,
2013-02-17 08:45:00,45.7,40.0,29.91,NE,45,0.0,0.0,80,0.00,,,0.00,WUHU216HW,2013-02-17 16:45:00,
2013-02-17 08:50:00,46.1,40.3,29.91,ESE,113,0.4,1.1,80,0.00,,,0.00,WUHU216HW,2013-02-17 16:50:00,
2013-02-17 08:55:00,46.8,41.1,29.91,ESE,113,0.9,1.3,80,0.00,,,0.00,WUHU216HW,2013-02-17 16:55:00,
2013-02-17 09:00:00,47.5,42.3,29.91,SE,135,0.9,1.3,82,0.00,,,0.00,WUHU216HW,2013-02-17 17:00:00,
2013-02-17 09:05:00,48.2,42.9,29.91,NNE,23,1.8,1.8,82,0.00,,,0.00,WUHU216HW,2013-02-17 17:05:00,
2013-02-17 09:10:00,49.0,43.7,29.91,East,90,0.4,1.8,82,0.00,,,0.00,WUHU216HW,2013-02-17 17:10:00,
2013-02-17 09:15:00,49.5,43.8,29.92,East,90,0.0,1.8,81,0.00,,,0.00,WUHU216HW,2013-02-17 17:15:00,
2013-02-17 09:20:00,50.0,43.4,29.91,North,0,0.9,1.6,78,0.00,,,0.00,WUHU216HW,2013-02-17 17:20:00,
2013-02-17 09:25:00,50.8,43.8,29.92,ENE,68,1.3,1.6,77,0.00,,,0.00,WUHU216HW,2013-02-17 17:25:00,
2013-02-17 09:30:00,51.5,43.8,29.92,SW,225,0.9,1.3,75,0.00,,,0.00,WUHU216HW,2013-02-17 17:30:00,
2013-02-17 09:35:00,52.0,44.4,29.92,West,270,0.9,1.6,75,0.00,,,0.00,WUHU216HW,2013-02-17 17:35:00,
2013-02-17 09:40:00,52.4,44.4,29.92,WNW,293,1.8,2.0,74,0.00,,,0.00,WUHU216HW,2013-02-17 17:40:00,
2013-02-17 09:45:00,52.9,44.2,29.92,West,270,0.7,2.0,72,0.00,,,0.00,WUHU216HW,2013-02-17 17:45:00,
2013-02-17 09:50:00,53.3,44.5,29.92,West,270,0.9,2.9,72,0.00,,,0.00,WUHU216HW,2013-02-17 17:50:00,
2013-02-17 09:55:00,53.8,44.7,29.92,West,270,2.2,2.9,71,0.00,,,0.00,WUHU216HW,2013-02-17 17:55:00,
2013-02-17 10:00:00,54.4,44.8,29.92,WNW,293,2.5,4.0,70,0.00,,,0.00,WUHU216HW,2013-02-17 18:00:00,
2013-02-17 10:05:00,54.9,45.4,29.92,West,270,3.6,4.0,70,0.00,,,0.00,WUHU216HW,2013-02-17 18:05:00,
2013-02-17 10:10:00,55.1,45.1,29.92,West,270,2.7,4.0,69,0.00,,,0.00,WUHU216HW,2013-02-17 18:10:00,
2013-02-17 10:15:00,55.6,45.6,29.92,WNW,293,1.8,4.7,69,0.00,,,0.00,WUHU216HW,2013-02-17 18:15:00,
2013-02-17 10:20:00,55.8,45.8,29.92,West,270,3.4,4.7,69,0.00,,,0.00,WUHU216HW,2013-02-17 18:20:00,
2013-02-17 10:25:00,56.0,45.5,29.92,West,270,2.5,5.8,68,0.00,,,0.00,WUHU216HW,2013-02-17 18:25:00,
2013-02-17 10:30:00,56.3,45.5,29.92,West,270,2.2,5.8,67,0.00,,,0.00,WUHU216HW,2013-02-17 18:30:00,
2013-02-17 10:35:00,56.5,45.3,29.92,WNW,293,3.4,5.1,66,0.00,,,0.00,WUHU216HW,2013-02-17 18:35:00,
2013-02-17 10:40:00,56.7,45.5,29.92,West,270,4.0,4.7,66,0.00,,,0.00,WUHU216HW,2013-02-17 18:40:00,
2013-02-17 10:45:00,56.9,45.2,29.92,WNW,293,1.3,5.6,65,0.00,,,0.00,WUHU216HW,2013-02-17 18:45:00,
2013-02-17 10:50:00,57.1,45.0,29.92,West,270,3.1,5.6,64,0.00,,,0.00,WUHU216HW,2013-02-17 18:50:00,
2013-02-17 10:55:00,57.2,45.5,29.92,WNW,293,1.6,4.5,65,0.00,,,0.00,WUHU216HW,2013-02-17 18:55:00,
2013-02-17 11:00:00,57.6,45.9,29.92,West,270,2.2,3.8,65,0.00,,,0.00,WUHU216HW,2013-02-17 19:00:00,
2013-02-17 11:05:00,58.0,45.8,29.92,West,270,0.7,4.3,64,0.00,,,0.00,WUHU216HW,2013-02-17 19:05:00,
2013-02-17 11:10:00,58.3,46.2,29.92,West,270,1.1,4.3,64,0.00,,,0.00,WUHU216HW,2013-02-17 19:10:00,
2013-02-17 11:15:00,58.5,46.4,29.92,WNW,293,1.6,3.4,64,0.00,,,0.00,WUHU216HW,2013-02-17 19:15:00,
2013-02-17 11:20:00,58.7,46.5,29.92,NW,315,1.8,3.4,64,0.00,,,0.00,WUHU216HW,2013-02-17 19:20:00,
2013-02-17 11:25:00,59.0,46.5,29.91,NNE,23,1.3,2.0,63,0.00,,,0.00,WUHU216HW,2013-02-17 19:25:00,
2013-02-17 11:30:00,59.2,46.6,29.91,West,270,0.9,3.1,63,0.00,,,0.00,WUHU216HW,2013-02-17 19:30:00,
2013-02-17 11:35:00,59.6,46.5,29.91,North,0,1.1,3.1,62,0.00,,,0.00,WUHU216HW,2013-02-17 19:35:00,
2013-02-17 11:40:00,59.9,46.9,29.91,NW,315,0.4,3.4,62,0.00,,,0.00,WUHU216HW,2013-02-17 19:40:00,
2013-02-17 11:45:00,60.1,47.1,29.91,NW,315,1.8,3.4,62,0.00,,,0.00,WUHU216HW,2013-02-17 19:45:00,
2013-02-17 11:50:00,60.7,47.3,29.91,NW,315,3.4,4.0,61,0.00,,,0.00,WUHU216HW,2013-02-17 19:50:00,
2013-02-17 11:55:00,60.8,47.0,29.91,West,270,3.6,4.0,60,0.00,,,0.00,WUHU216HW,2013-02-17 19:55:00,
2013-02-17 12:00:00,61.0,46.6,29.91,NW,315,4.5,4.7,59,0.00,,,0.00,WUHU216HW,2013-02-17 20:00:00,
2013-02-17 12:05:00,61.2,46.4,29.91,NW,315,1.1,5.4,58,0.00,,,0.00,WUHU216HW,2013-02-17 20:05:00,
2013-02-17 12:10:00,61.2,46.4,29.90,WNW,293,2.0,5.4,58,0.00,,,0.00,WUHU216HW,2013-02-17 20:10:00,
2013-02-17 12:15:00,61.4,46.0,29.90,NNW,338,2.2,5.4,57,0.00,,,0.00,WUHU216HW,2013-02-17 20:15:00,
2013-02-17 12:20:00,61.6,46.2,29.89,WNW,293,4.3,6.9,57,0.00,,,0.00,WUHU216HW,2013-02-17 20:20:00,
2013-02-17 12:25:00,61.7,46.4,29.89,WNW,293,1.8,6.9,57,0.00,,,0.00,WUHU216HW,2013-02-17 20:25:00,
2013-02-17 12:30:00,62.1,45.2,29.89,NNW,338,1.1,4.3,54,0.00,,,0.00,WUHU216HW,2013-02-17 20:30:00,
2013-02-17 12:35:00,62.5,46.0,29.89,West,270,2.5,6.5,55,0.00,,,0.00,WUHU216HW,2013-02-17 20:35:00,
2013-02-17 12:40:00,62.6,46.6,29.89,West,270,2.7,6.5,56,0.00,,,0.00,WUHU216HW,2013-02-17 20:40:00,
2013-02-17 12:45:00,63.0,47.0,29.89,North,0,1.3,7.6,56,0.00,,,0.00,WUHU216HW,2013-02-17 20:45:00,
2013-02-17 12:50:00,63.0,47.0,29.89,SW,225,1.1,7.6,56,0.00,,,0.00,WUHU216HW,2013-02-17 20:50:00,
2013-02-17 12:55:00,63.2,46.6,29.89,WNW,293,4.7,6.9,55,0.00,,,0.00,WUHU216HW,2013-02-17 20:55:00,
2013-02-17 13:00:00,63.4,47.4,29.89,WSW,248,4.9,6.3,56,0.00,,,0.00,WUHU216HW,2013-02-17 21:00:00,
2013-02-17 13:05:00,63.5,47.4,29.88,WNW,293,3.1,5.8,56,0.00,,,0.00,WUHU216HW,2013-02-17 21:05:00,
2013-02-17 13:10:00,63.7,47.6,29.88,West,270,4.9,5.4,56,0.00,,,0.00,WUHU216HW,2013-02-17 21:10:00,
2013-02-17 13:15:00,63.7,47.2,29.88,NW,315,3.8,7.6,55,0.00,,,0.00,WUHU216HW,2013-02-17 21:15:00,
2013-02-17 13:20:00,63.9,47.4,29.88,NW,315,1.8,7.6,55,0.00,,,0.00,WUHU216HW,2013-02-17 21:20:00,
2013-02-17 13:25:00,63.9,47.4,29.88,WNW,293,2.7,6.3,55,0.00,,,0.00,WUHU216HW,2013-02-17 21:25:00,
2013-02-17 13:30:00,63.9,46.8,29.88,West,270,5.4,6.3,54,0.00,,,0.00,WUHU216HW,2013-02-17 21:30:00,
2013-02-17 13:35:00,64.1,47.4,29.87,West,270,2.0,5.4,55,0.00,,,0.00,WUHU216HW,2013-02-17 21:35:00,
2013-02-17 13:40:00,63.9,47.4,29.87,NNW,338,2.5,5.4,55,0.00,,,0.00,WUHU216HW,2013-02-17 21:40:00,
2013-02-17 13:45:00,63.9,46.8,29.87,NW,315,4.5,4.9,54,0.00,,,0.00,WUHU216HW,2013-02-17 21:45:00,
2013-02-17 13:50:00,63.9,47.4,29.87,North,0,1.8,4.5,55,0.00,,,0.00,WUHU216HW,2013-02-17 21:50:00,
2013-02-17 13:55:00,63.9,46.8,29.87,West,270,6.5,9.2,54,0.00,,,0.00,WUHU216HW,2013-02-17 21:55:00,
2013-02-17 14:00:00,63.7,46.6,29.86,NW,315,2.9,9.2,54,0.00,,,0.00,WUHU216HW,2013-02-17 22:00:00,
2013-02-17 14:05:00,63.7,46.6,29.86,WNW,293,2.9,6.7,54,0.00,,,0.00,WUHU216HW,2013-02-17 22:05:00,
2013-02-17 14:10:00,63.7,46.6,29.86,WNW,293,5.8,6.5,54,0.00,,,0.00,WUHU216HW,2013-02-17 22:10:00,
2013-02-17 14:15:00,63.7,46.6,29.86,WNW,293,2.9,6.5,54,0.00,,,0.00,WUHU216HW,2013-02-17 22:15:00,
2013-02-17 14:20:00,63.7,47.2,29.86,NW,315,4.0,5.8,55,0.00,,,0.00,WUHU216HW,2013-02-17 22:20:00,
2013-02-17 14:25:00,63.9,47.4,29.86,NNW,338,1.1,4.3,55,0.00,,,0.00,WUHU216HW,2013-02-17 22:25:00,
2013-02-17 14:30:00,63.9,46.8,29.86,West,270,6.9,6.9,54,0.00,,,0.00,WUHU216HW,2013-02-17 22:30:00,
2013-02-17 14:35:00,63.9,46.4,29.86,WNW,293,3.1,7.6,53,0.00,,,0.00,WUHU216HW,2013-02-17 22:35:00,
2013-02-17 14:40:00,63.7,46.2,29.86,WSW,248,5.1,7.6,53,0.00,,,0.00,WUHU216HW,2013-02-17 22:40:00,
2013-02-17 14:45:00,63.7,46.6,29.86,NW,315,1.1,5.1,54,0.00,,,0.00,WUHU216HW,2013-02-17 22:45:00,
2013-02-17 14:50:00,63.5,45.6,29.86,NW,315,4.0,4.7,52,0.00,,,0.00,WUHU216HW,2013-02-17 22:50:00,
2013-02-17 14:55:00,63.4,45.8,29.86,NW,315,2.9,4.3,53,0.00,,,0.00,WUHU216HW,2013-02-17 22:55:00,
2013-02-17 15:00:00,63.4,45.8,29.86,WNW,293,1.1,4.3,53,0.00,,,0.00,WUHU216HW,2013-02-17 23:00:00,
2013-02-17 15:05:00,63.4,45.8,29.86,WNW,293,2.0,4.0,53,0.00,,,0.00,WUHU216HW,2013-02-17 23:05:00,
2013-02-17 15:10:00,63.4,46.4,29.86,NW,315,4.5,4.5,54,0.00,,,0.00,WUHU216HW,2013-02-17 23:10:00,
2013-02-17 15:15:00,63.4,45.8,29.86,WNW,293,4.0,5.4,53,0.00,,,0.00,WUHU216HW,2013-02-17 23:15:00,
2013-02-17 15:20:00,63.4,45.4,29.86,WNW,293,4.0,5.4,52,0.00,,,0.00,WUHU216HW,2013-02-17 23:20:00,
2013-02-17 15:25:00,63.4,45.4,29.86,WNW,293,4.0,4.0,52,0.00,,,0.00,WUHU216HW,2013-02-17 23:25:00,
2013-02-17 15:30:00,63.5,45.6,29.86,NW,315,1.6,4.0,52,0.00,,,0.00,WUHU216HW,2013-02-17 23:30:00,
2013-02-17 15:35:00,63.5,45.6,29.86,NNW,338,0.7,4.0,52,0.00,,,0.00,WUHU216HW,2013-02-17 23:35:00,
2013-02-17 15:40:00,63.7,46.2,29.85,NNW,338,1.1,3.6,53,0.00,,,0.00,WUHU216HW,2013-02-17 23:40:00,
2013-02-17 15:45:00,64.1,46.5,29.85,NW,315,2.5,3.4,53,0.00,,,0.00,WUHU216HW,2013-02-17 23:45:00,
2013-02-17 15:50:00,64.1,46.0,29.85,NNW,338,2.2,4.5,52,0.00,,,0.00,WUHU216HW,2013-02-17 23:50:00,
2013-02-17 15:55:00,64.4,46.4,29.85,WNW,293,1.8,4.5,52,0.00,,,0.00,WUHU216HW,2013-02-17 23:55:00,
2013-02-17 16:00:00,64.6,46.0,29.85,NW,315,1.8,3.4,51,0.00,,,0.00,WUHU216HW,2013-02-18 00:00:00,
2013-02-17 16:05:00,64.6,46.0,29.85,NNW,338,2.5,3.8,51,0.00,,,0.00,WUHU216HW,2013-02-18 00:05:00,
2013-02-17 16:10:00,64.8,45.7,29.85,NNW,338,1.3,3.8,50,0.00,,,0.00,WUHU216HW,2013-02-18 00:10:00,
2013-02-17 16:15:00,64.8,46.2,29.85,NW,315,1.8,3.4,51,0.00,,,0.00,WUHU216HW,2013-02-18 00:15:00,
2013-02-17 16:20:00,65.0,45.9,29.85,NNW,338,1.8,2.9,50,0.00,,,0.00,WUHU216HW,2013-02-18 00:20:00,
2013-02-17 16:25:00,65.0,45.9,29.85,WNW,293,2.0,3.1,50,0.00,,,0.00,WUHU216HW,2013-02-18 00:25:00,
2013-02-17 16:30:00,65.2,46.1,29.85,NW,315,1.6,4.9,50,0.00,,,0.00,WUHU216HW,2013-02-18 00:30:00,
2013-02-17 16:35:00,65.0,45.9,29.85,NNW,338,2.5,4.9,50,0.00,,,0.00,WUHU216HW,2013-02-18 00:35:00,
2013-02-17 16:40:00,64.8,45.7,29.85,NNW,338,1.6,3.1,50,0.00,,,0.00,WUHU216HW,2013-02-18 00:40:00,
2013-02-17 16:45:00,64.6,45.5,29.85,North,0,0.0,2.5,50,0.00,,,0.00,WUHU216HW,2013-02-18 00:45:00,
2013-02-17 16:50:00,64.6,45.5,29.85,West,270,1.3,2.2,50,0.00,,,0.00,WUHU216HW,2013-02-18 00:50:00,
2013-02-17 16:55:00,64.6,46.0,29.85,WNW,293,0.4,2.2,51,0.00,,,0.00,WUHU216HW,2013-02-18 00:55:00,
2013-02-17 17:00:00,64.6,46.0,29.85,WNW,293,1.6,2.2,51,0.00,,,0.00,WUHU216HW,2013-02-18 01:00:00,
2013-02-17 17:05:00,64.4,45.8,29.84,NW,315,0.7,1.6,51,0.00,,,0.00,WUHU216HW,2013-02-18 01:05:00,
2013-02-17 17:10:00,64.3,45.2,29.84,NW,315,0.0,1.8,50,0.00,,,0.00,WUHU216HW,2013-02-18 01:10:00,
2013-02-17 17:15:00,63.9,45.4,29.84,NW,315,0.0,1.8,51,0.00,,,0.00,WUHU216HW,2013-02-18 01:15:00,
2013-02-17 17:20:00,63.5,45.0,29.84,NW,315,0.4,0.7,51,0.00,,,0.00,WUHU216HW,2013-02-18 01:20:00,
2013-02-17 17:25:00,63.4,45.4,29.84,NW,315,0.0,0.7,52,0.00,,,0.00,WUHU216HW,2013-02-18 01:25:00,
2013-02-17 17:30:00,63.0,45.0,29.84,NW,315,0.4,0.7,52,0.00,,,0.00,WUHU216HW,2013-02-18 01:30:00,
2013-02-17 17:35:00,62.6,45.2,29.84,NW,315,0.4,1.1,53,0.00,,,0.00,WUHU216HW,2013-02-18 01:35:00,
2013-02-17 17:40:00,62.1,44.7,29.84,NW,315,0.0,1.1,53,0.00,,,0.00,WUHU216HW,2013-02-18 01:40:00,
2013-02-17 17:45:00,61.6,44.7,29.84,NW,315,0.0,0.4,54,0.00,,,0.00,WUHU216HW,2013-02-18 01:45:00,
2013-02-17 17:50:00,61.2,44.4,29.84,NW,315,0.0,0.0,54,0.00,,,0.00,WUHU216HW,2013-02-18 01:50:00,
2013-02-17 17:55:00,60.7,44.4,29.84,NW,315,0.0,0.0,55,0.00,,,0.00,WUHU216HW,2013-02-18 01:55:00,
2013-02-17 18:00:00,60.3,44.0,29.85,NW,315,0.0,0.0,55,0.00,,,0.00,WUHU216HW,2013-02-18 02:00:00,
2013-02-17 18:05:00,59.9,44.2,29.84,NW,315,0.0,0.0,56,0.00,,,0.00,WUHU216HW,2013-02-18 02:05:00,
2013-02-17 18:10:00,59.6,44.3,29.84,NW,315,0.0,0.0,57,0.00,,,0.00,WUHU216HW,2013-02-18 02:10:00,
2013-02-17 18:15:00,59.4,44.1,29.84,NW,315,0.0,0.0,57,0.00,,,0.00,WUHU216HW,2013-02-18 02:15:00,
2013-02-17 18:20:00,59.0,44.3,29.84,NW,315,0.0,0.0,58,0.00,,,0.00,WUHU216HW,2013-02-18 02:20:00,
2013-02-17 18:25:00,58.7,43.9,29.84,NW,315,0.0,0.0,58,0.00,,,0.00,WUHU216HW,2013-02-18 02:25:00,
2013-02-17 18:30:00,58.3,43.6,29.84,NW,315,0.0,0.0,58,0.00,,,0.00,WUHU216HW,2013-02-18 02:30:00,
2013-02-17 18:35:00,57.8,43.1,29.84,NW,315,0.0,0.0,58,0.00,,,0.00,WUHU216HW,2013-02-18 02:35:00,
2013-02-17 18:40:00,57.4,42.8,29.84,NW,315,0.0,0.2,58,0.00,,,0.00,WUHU216HW,2013-02-18 02:40:00,
2013-02-17 18:45:00,57.1,42.9,29.84,NW,315,0.0,0.2,59,0.00,,,0.00,WUHU216HW,2013-02-18 02:45:00,
2013-02-17 18:50:00,56.7,42.6,29.84,NW,315,0.0,0.0,59,0.00,,,0.00,WUHU216HW,2013-02-18 02:50:00,
2013-02-17 18:55:00,56.5,42.8,29.85,NW,315,0.0,0.0,60,0.00,,,0.00,WUHU216HW,2013-02-18 02:55:00,
2013-02-17 19:00:00,56.2,42.5,29.85,NW,315,0.0,0.0,60,0.00,,,0.00,WUHU216HW,2013-02-18 03:00:00,
2013-02-17 19:05:00,55.8,42.6,29.85,NW,315,0.0,0.0,61,0.00,,,0.00,WUHU216HW,2013-02-18 03:05:00,
2013-02-17 19:10:00,55.4,43.0,29.85,NW,315,0.2,0.2,63,0.00,,,0.00,WUHU216HW,2013-02-18 03:10:00,
2013-02-17 19:15:00,54.7,42.8,29.85,NW,315,0.0,0.2,64,0.00,,,0.00,WUHU216HW,2013-02-18 03:15:00,
2013-02-17 19:20:00,54.4,42.4,29.85,NW,315,0.0,0.2,64,0.00,,,0.00,WUHU216HW,2013-02-18 03:20:00,
2013-02-17 19:25:00,54.0,42.0,29.85,NW,315,0.0,0.0,64,0.00,,,0.00,WUHU216HW,2013-02-18 03:25:00,
2013-02-17 19:30:00,53.8,41.9,29.85,NW,315,0.0,0.0,64,0.00,,,0.00,WUHU216HW,2013-02-18 03:30:00,
2013-02-17 19:35:00,53.6,42.1,29.85,NW,315,0.0,0.2,65,0.00,,,0.00,WUHU216HW,2013-02-18 03:35:00,
2013-02-17 19:40:00,53.1,42.4,29.86,NW,315,0.4,0.7,67,0.00,,,0.00,WUHU216HW,2013-02-18 03:40:00,
2013-02-17 19:45:00,52.7,42.5,29.86,NW,315,0.0,0.7,68,0.00,,,0.00,WUHU216HW,2013-02-18 03:45:00,
2013-02-17 19:50:00,52.4,42.1,29.86,NW,315,0.0,0.4,68,0.00,,,0.00,WUHU216HW,2013-02-18 03:50:00,
2013-02-17 19:55:00,52.2,42.4,29.86,NW,315,0.0,0.0,69,0.00,,,0.00,WUHU216HW,2013-02-18 03:55:00,
2013-02-17 20:00:00,51.5,41.7,29.86,NW,315,0.4,0.4,69,0.00,,,0.00,WUHU216HW,2013-02-18 04:00:00,
2013-02-17 20:05:00,51.1,41.8,29.86,NW,315,0.7,0.7,70,0.00,,,0.00,WUHU216HW,2013-02-18 04:05:00,
2013-02-17 20:10:00,50.8,41.8,29.86,NW,315,0.4,0.7,71,0.00,,,0.00,WUHU216HW,2013-02-18 04:10:00,
2013-02-17 20:15:00,50.8,41.8,29.86,NW,315,0.0,0.7,71,0.00,,,0.00,WUHU216HW,2013-02-18 04:15:00,
2013-02-17 20:20:00,50.8,41.8,29.86,NW,315,0.0,0.4,71,0.00,,,0.00,WUHU216HW,2013-02-18 04:20:00,
2013-02-17 20:25:00,50.8,41.8,29.86,NW,315,0.0,0.0,71,0.00,,,0.00,WUHU216HW,2013-02-18 04:25:00,
2013-02-17 20:30:00,50.6,41.6,29.86,NW,315,0.0,0.0,71,0.00,,,0.00,WUHU216HW,2013-02-18 04:30:00,
2013-02-17 20:35:00,50.6,41.6,29.86,NW,315,0.0,0.0,71,0.00,,,0.00,WUHU216HW,2013-02-18 04:35:00,
2013-02-17 20:40:00,50.6,41.2,29.86,NW,315,0.0,0.0,70,0.00,,,0.00,WUHU216HW,2013-02-18 04:40:00,
2013-02-17 20:45:00,50.4,41.4,29.86,NW,315,0.4,0.7,71,0.00,,,0.00,WUHU216HW,2013-02-18 04:45:00,
2013-02-17 20:50:00,50.0,41.4,29.86,NW,315,0.0,0.7,72,0.00,,,0.00,WUHU216HW,2013-02-18 04:50:00,
2013-02-17 20:55:00,49.5,40.9,29.86,NW,315,0.0,0.4,72,0.00,,,0.00,WUHU216HW,2013-02-18 04:55:00,
2013-02-17 21:00:00,49.3,41.0,29.86,NW,315,0.0,0.4,73,0.00,,,0.00,WUHU216HW,2013-02-18 05:00:00,
2013-02-17 21:05:00,49.1,40.8,29.86,NW,315,0.0,0.4,73,0.00,,,0.00,WUHU216HW,2013-02-18 05:05:00,
2013-02-17 21:10:00,49.0,40.6,29.86,NW,315,0.0,0.0,73,0.00,,,0.00,WUHU216HW,2013-02-18 05:10:00,
2013-02-17 21:15:00,48.8,40.4,29.86,NW,315,0.0,0.0,73,0.00,,,0.00,WUHU216HW,2013-02-18 05:15:00,
2013-02-17 21:20:00,48.6,40.0,29.87,NW,315,0.0,0.0,72,0.00,,,0.00,WUHU216HW,2013-02-18 05:20:00,
2013-02-17 21:25:00,48.6,40.2,29.86,NW,315,0.0,0.0,73,0.00,,,0.00,WUHU216HW,2013-02-18 05:25:00,
2013-02-17 21:30:00,48.2,39.9,29.87,NW,315,0.2,0.2,73,0.00,,,0.00,WUHU216HW,2013-02-18 05:30:00,
2013-02-17 21:35:00,48.1,40.1,29.87,NW,315,0.7,0.7,74,0.00,,,0.00,WUHU216HW,2013-02-18 05:35:00,
2013-02-17 21:40:00,47.7,39.8,29.87,NW,315,0.0,0.7,74,0.00,,,0.00,WUHU216HW,2013-02-18 05:40:00,
2013-02-17 21:45:00,47.5,39.6,29.87,NW,315,0.0,0.7,74,0.00,,,0.00,WUHU216HW,2013-02-18 05:45:00,
2013-02-17 21:50:00,47.2,39.6,29.87,NW,315,0.0,0.7,75,0.00,,,0.00,WUHU216HW,2013-02-18 05:50:00,
2013-02-17 21:55:00,47.2,39.6,29.87,NW,315,0.7,0.7,75,0.00,,,0.00,WUHU216HW,2013-02-18 05:55:00,
2013-02-17 22:00:00,46.8,39.6,29.87,NW,315,0.0,0.9,76,0.00,,,0.00,WUHU216HW,2013-02-18 06:00:00,
2013-02-17 22:05:00,46.6,39.5,29.88,NW,315,0.2,0.9,76,0.00,,,0.00,WUHU216HW,2013-02-18 06:05:00,
2013-02-17 22:10:00,46.6,39.2,29.87,NW,315,0.0,0.2,75,0.00,,,0.00,WUHU216HW,2013-02-18 06:10:00,
2013-02-17 22:15:00,46.4,39.3,29.87,NW,315,0.4,0.4,76,0.00,,,0.00,WUHU216HW,2013-02-18 06:15:00,
2013-02-17 22:20:00,46.4,39.3,29.87,NW,315,0.4,0.9,76,0.00,,,0.00,WUHU216HW,2013-02-18 06:20:00,
2013-02-17 22:25:00,46.1,39.3,29.87,NW,315,0.2,0.9,77,0.00,,,0.00,WUHU216HW,2013-02-18 06:25:00,
2013-02-17 22:30:00,45.9,39.2,29.87,NW,315,0.0,0.4,77,0.00,,,0.00,WUHU216HW,2013-02-18 06:30:00,
2013-02-17 22:35:00,45.9,39.2,29.87,NW,315,0.0,0.2,77,0.00,,,0.00,WUHU216HW,2013-02-18 06:35:00,
2013-02-17 22:40:00,45.9,38.8,29.87,NW,315,0.4,0.4,76,0.00,,,0.00,WUHU216HW,2013-02-18 06:40:00,
2013-02-17 22:45:00,45.7,39.0,29.87,NW,315,0.0,0.7,77,0.00,,,0.00,WUHU216HW,2013-02-18 06:45:00,
2013-02-17 22:50:00,45.7,39.0,29.87,NW,315,0.0,0.7,77,0.00,,,0.00,WUHU216HW,2013-02-18 06:50:00,
2013-02-17 22:55:00,45.5,38.8,29.87,NW,315,0.2,0.4,77,0.00,,,0.00,WUHU216HW,2013-02-18 06:55:00,
2013-02-17 23:00:00,45.4,38.3,29.87,NW,315,0.0,0.2,76,0.00,,,0.00,WUHU216HW,2013-02-18 07:00:00,
2013-02-17 23:05:00,45.2,38.1,29.87,NW,315,0.0,0.2,76,0.00,,,0.00,WUHU216HW,2013-02-18 07:05:00,
2013-02-17 23:10:00,45.2,38.1,29.87,NW,315,0.2,0.4,76,0.00,,,0.00,WUHU216HW,2013-02-18 07:10:00,
2013-02-17 23:15:00,45.2,38.1,29.87,NW,315,0.0,0.4,76,0.00,,,0.00,WUHU216HW,2013-02-18 07:15:00,
2013-02-17 23:20:00,45.2,38.1,29.87,NW,315,0.0,0.2,76,0.00,,,0.00,WUHU216HW,2013-02-18 07:20:00,
2013-02-17 23:25:00,45.0,38.3,29.87,NW,315,0.0,0.2,77,0.00,,,0.00,WUHU216HW,2013-02-18 07:25:00,
2013-02-17 23:30:00,45.0,38.3,29.87,NW,315,0.0,0.2,77,0.00,,,0.00,WUHU216HW,2013-02-18 07:30:00,
2013-02-17 23:35:00,45.0,38.3,29.87,NW,315,0.0,0.2,77,0.00,,,0.00,WUHU216HW,2013-02-18 07:35:00,
2013-02-17 23:40:00,44.8,38.1,29.87,NW,315,0.0,0.4,77,0.00,,,0.00,WUHU216HW,2013-02-18 07:40:00,
2013-02-17 23:45:00,44.6,37.9,29.87,NW,315,0.0,0.4,77,0.00,,,0.00,WUHU216HW,2013-02-18 07:45:00,
2013-02-17 23:50:00,44.6,37.9,29.87,NW,315,0.4,0.4,77,0.00,,,0.00,WUHU216HW,2013-02-18 07:50:00,
2013-02-17 23:55:00,44.5,37.7,29.87,NW,315,0.0,0.7,77,0.00,,,0.00,WUHU216HW,2013-02-18 07:55:00,